TimeEST,TemperatureF,Dew PointF,Humidity,Sea Level PressureIn,VisibilityMPH,Wind Direction,Wind SpeedMPH,Gust SpeedMPH,PrecipitationIn,Events,Conditions,WindDirDegrees,DateUTC
12:51 AM,23.0,17.1,78,30.27,10.0,NW,3.5,-,N/A,,Clear,320,2012-12-07 05:51:00
1:51 AM,21.0,17.1,85,30.27,10.0,NNW,3.5,-,N/A,,Clear,330,2012-12-07 06:51:00
2:51 AM,21.9,18.0,85,30.25,10.0,NNW,3.5,-,N/A,,Clear,330,2012-12-07 07:51:00
3:51 AM,21.9,18.0,85,30.24,10.0,NNW,4.6,-,N/A,,Clear,330,2012-12-07 08:51:00
4:51 AM,23.0,19.0,85,30.24,10.0,Calm,Calm,-,N/A,,Clear,0,2012-12-07 09:51:00
5:51 AM,24.1,19.0,81,30.23,10.0,Calm,Calm,-,N/A,,Clear,0,2012-12-07 10:51:00
6:51 AM,24.1,19.9,84,30.23,10.0,Calm,Calm,-,N/A,,Clear,0,2012-12-07 11:51:00
7:51 AM,24.1,19.9,84,30.22,10.0,Calm,Calm,-,N/A,,Clear,0,2012-12-07 12:51:00
8:51 AM,27.0,19.9,75,30.21,10.0,Calm,Calm,-,N/A,,Clear,0,2012-12-07 13:51:00
9:51 AM,30.9,21.9,69,30.21,10.0,Calm,Calm,-,N/A,,Clear,0,2012-12-07 14:51:00
10:10 AM,30.2,21.2,69,30.20,9.0,Variable,4.6,-,N/A,,Mostly Cloudy,0,2012-12-07 15:10:00
10:51 AM,33.1,24.1,70,30.17,10.0,Variable,3.5,-,N/A,,Mostly Cloudy,0,2012-12-07 15:51:00
10:58 AM,33.8,24.8,70,30.16,10.0,SSE,3.5,-,N/A,,Partly Cloudy,160,2012-12-07 15:58:00
11:30 AM,33.8,24.8,70,30.15,10.0,South,3.5,-,N/A,,Mostly Cloudy,180,2012-12-07 16:30:00
11:51 AM,35.1,25.0,67,30.15,10.0,South,4.6,-,N/A,,Overcast,170,2012-12-07 16:51:00
12:37 PM,37.4,26.6,65,30.12,10.0,South,8.1,-,N/A,,Scattered Clouds,180,2012-12-07 17:37:00
12:51 PM,39.0,27.0,62,30.12,10.0,South,5.8,-,N/A,,Mostly Cloudy,170,2012-12-07 17:51:00
1:51 PM,39.0,28.0,65,30.10,10.0,Variable,3.5,-,N/A,,Overcast,0,2012-12-07 18:51:00
2:51 PM,39.9,28.9,65,30.09,10.0,Calm,Calm,-,N/A,,Overcast,0,2012-12-07 19:51:00
3:51 PM,39.9,30.0,68,30.08,10.0,South,3.5,-,N/A,,Overcast,180,2012-12-07 20:51:00
4:51 PM,37.0,33.1,86,30.07,10.0,Calm,Calm,-,0.00,,Overcast,0,2012-12-07 21:51:00
5:01 PM,37.4,33.8,87,30.07,8.0,Calm,Calm,-,0.00,Rain,Light Rain,0,2012-12-07 22:01:00
5:51 PM,37.0,34.0,89,30.07,7.0,Calm,Calm,-,0.03,Rain,Light Rain,0,2012-12-07 22:51:00
6:51 PM,37.0,35.1,93,30.07,4.0,Calm,Calm,-,0.01,Rain,Light Rain,0,2012-12-07 23:51:00
7:51 PM,36.0,35.1,97,30.06,4.0,Calm,Calm,-,0.01,,Overcast,0,2012-12-08 00:51:00
8:21 PM,37.4,35.6,93,30.06,5.0,Calm,Calm,-,N/A,,Overcast,0,2012-12-08 01:21:00
8:51 PM,37.0,35.1,93,30.05,6.0,Calm,Calm,-,N/A,,Overcast,0,2012-12-08 01:51:00
9:51 PM,37.0,35.1,93,30.04,5.0,Calm,Calm,-,N/A,,Overcast,0,2012-12-08 02:51:00
10:04 PM,37.4,35.6,93,30.03,4.0,Calm,Calm,-,N/A,,Overcast,0,2012-12-08 03:04:00
10:38 PM,37.4,35.6,93,30.03,4.0,Calm,Calm,-,N/A,,Overcast,0,2012-12-08 03:38:00
10:51 PM,37.0,35.1,93,30.03,3.0,Calm,Calm,-,N/A,,Overcast,0,2012-12-08 03:51:00
11:41 PM,37.4,35.6,93,30.02,3.0,Calm,Calm,-,N/A,,Overcast,0,2012-12-08 04:41:00
11:51 PM,37.0,35.1,93,30.02,2.0,Calm,Calm,-,N/A,,Overcast,0,2012-12-08 04:51:00